Main page
METAR-TAF:

METAR-TAF

Airports :

D15-fa-1, Netherlands

Oil platform

latitude: 54-19-32N, longitude: 2-56-09E, elevation: 36 m

Current weather observation

The report was made 36 minutes ago, at 12:55 UTC
Wind 30 kt from the West, varying between West/Southwest and Northeast
Temperature 12°C
Humidity 82%
Pressure 1002 hPa
Visibility 10 km or more

METAR: EHDV 221255Z AUTO 27030KT 240V040 9999 FEW007/// SCT014/// BKN017/// 12/09 Q1002

Time: 15:31 (13:31 UTC)


TAF: missing

Weather observations and forecasts of more than 4000 airports (METAR and TAF reports).

The available stations are represented by yellow and red dots on the map.

Hover mouse over dot to see the name of the station.

Then click to see weather observations and forecasts.

To change the map : click on the green buttons with a black cross to zoom in, on the green button with a dash to zoom out, or on the green arrows for adjacent maps.


METAR-TAF: